• In Deutschland
  • Länderverzeichnis
  • Für 7 Tage
  • Wassertemperatur
  • Satellitenkarten
  • Wetterkarte
  • Widgets
  • user-avatar
    Anmelden

    Stündliche Wetter Donaueschingen

    Heute, 26 September, Mittwoch

    Zeit Temperatur Niederschläge Wind Luftdruck Luftfeuchtigkeit
    00:00 +3°C° 0 mm 2 m/S 713 mmHg 72%
    01:00 +3°C° 0 mm 2 m/S 713 mmHg 73%
    02:00 +2°C° 0 mm 2 m/S 713 mmHg 75%
    03:00 +3°C° 0 mm 1 m/S 712 mmHg 76%
    04:00 +2°C° 0 mm 1 m/S 712 mmHg 78%
    05:00 +3°C° 0 mm 1 m/S 712 mmHg 76%
    06:00 +3°C° 0 mm 1 m/S 712 mmHg 75%
    07:00 +3°C° 0 mm 1 m/S 713 mmHg 73%
    08:00 +7°C° 0 mm 1 m/S 713 mmHg 65%
    09:00 +10°C° 0 mm 1 m/S 714 mmHg 56%
    10:00 +13°C° 0 mm 1 m/S 714 mmHg 48%
    11:00 +15°C° 0 mm 1 m/S 714 mmHg 45%
    12:00 +18°C° 0 mm 1 m/S 714 mmHg 42%
    13:00 +20°C° 0 mm 1 m/S 715 mmHg 39%
    14:00 +20°C° 0 mm 1 m/S 714 mmHg 40%
    15:00 +18°C° 0 mm 0 m/S 714 mmHg 41%
    16:00 +18°C° 0 mm 0 m/S 714 mmHg 42%
    17:00 +15°C° 0 mm 0 m/S 714 mmHg 50%
    18:00 +12°C° 0 mm 0 m/S 713 mmHg 58%
    19:00 +10°C° 0 mm 0 m/S 713 mmHg 66%
    20:00 +9°C° 0 mm 0 m/S 713 mmHg 68%
    21:00 +9°C° 0 mm 0 m/S 713 mmHg 69%
    22:00 +8°C° 0 mm 0 m/S 713 mmHg 71%
    23:00 +8°C° 0 mm 0 m/S 713 mmHg 72%

    Morgen, 27 September, Donnerstag

    Zeit Temperatur Niederschläge Wind Luftdruck Luftfeuchtigkeit
    00:00 +9°C° 0 mm 1 m/S 713 mmHg 73%
    01:00 +8°C° 0 mm 1 m/S 713 mmHg 74%
    02:00 +8°C° 0 mm 1 m/S 712 mmHg 74%
    03:00 +8°C° 0 mm 1 m/S 712 mmHg 74%
    04:00 +8°C° 0 mm 1 m/S 712 mmHg 74%
    05:00 +8°C° 0 mm 1 m/S 712 mmHg 73%
    06:00 +8°C° 0 mm 1 m/S 712 mmHg 72%
    07:00 +8°C° 0 mm 1 m/S 712 mmHg 72%
    08:00 +11°C° 0 mm 1 m/S 712 mmHg 64%
    09:00 +14°C° 0 mm 1 m/S 712 mmHg 56%
    10:00 +16°C° 0 mm 0 m/S 712 mmHg 48%
    11:00 +18°C° 0 mm 0 m/S 712 mmHg 45%
    12:00 +19°C° 0 mm 0 m/S 712 mmHg 42%
    13:00 +21°C° 0 mm 0 m/S 712 mmHg 39%
    14:00 +21°C° 0 mm 0 m/S 711 mmHg 40%
    15:00 +22°C° 0 mm 1 m/S 711 mmHg 42%
    16:00 +22°C° 0 mm 1 m/S 710 mmHg 44%
    17:00 +20°C° 0 mm 1 m/S 710 mmHg 52%
    18:00 +16°C° 0 mm 1 m/S 709 mmHg 60%
    19:00 +13°C° 0 mm 1 m/S 709 mmHg 68%
    20:00 +12°C° 0 mm 1 m/S 708 mmHg 70%
    21:00 +12°C° 0 mm 1 m/S 708 mmHg 72%
    22:00 +11°C° 0 mm 1 m/S 708 mmHg 74%
    23:00 +11°C° 0 mm 1 m/S 708 mmHg 75%

    übermorgen, 28 September, Freitag

    Zeit Temperatur Niederschläge Wind Luftdruck Luftfeuchtigkeit
    00:00 +11°C° 0 mm 1 m/S 707 mmHg 76%
    01:00 +10°C° 0 mm 1 m/S 707 mmHg 78%
    02:00 +10°C° 0 mm 1 m/S 707 mmHg 79%
    03:00 +10°C° 0 mm 1 m/S 706 mmHg 80%
    04:00 +10°C° 0 mm 1 m/S 706 mmHg 81%
    05:00 +10°C° 0 mm 1 m/S 706 mmHg 82%
    06:00 +10°C° 0 mm 1 m/S 706 mmHg 82%
    07:00 +9°C° 0 mm 0 m/S 706 mmHg 82%
    08:00 +11°C° 0 mm 0 m/S 706 mmHg 74%
    09:00 +14°C° 0 mm 0 m/S 706 mmHg 66%
    10:00 +19°C° 0 mm 1 m/S 707 mmHg 57%
    11:00 +20°C° 0 mm 1 m/S 707 mmHg 55%
    12:00 +21°C° 0 mm 1 m/S 706 mmHg 52%
    13:00 +22°C° 0 mm 1 m/S 706 mmHg 50%
    14:00 +21°C° 0 mm 1 m/S 706 mmHg 52%
    15:00 +20°C° 0 mm 2 m/S 705 mmHg 54%
    16:00 +20°C° 0 mm 2 m/S 705 mmHg 56%
    17:00 +17°C° 0 mm 2 m/S 705 mmHg 63%
    18:00 +15°C° 0 mm 2 m/S 705 mmHg 70%
    19:00 +13°C° 0 mm 2 m/S 705 mmHg 76%
    20:00 +13°C° 0 mm 2 m/S 705 mmHg 75%
    21:00 +12°C° 0 mm 2 m/S 705 mmHg 74%
    22:00 +12°C° 0 mm 2 m/S 706 mmHg 73%
    23:00 +12°C° 0 mm 2 m/S 706 mmHg 77%

    29 September, Samstag

    Zeit Temperatur Niederschläge Wind Luftdruck Luftfeuchtigkeit
    00:00 +10°C° 0 mm 2 m/S 706 mmHg 80%
    01:00 +9°C° 0 mm 3 m/S 706 mmHg 83%
    02:00 +9°C° 0 mm 3 m/S 706 mmHg 85%
    03:00 +8°C° 0 mm 3 m/S 706 mmHg 87%
    04:00 +8°C° 0 mm 3 m/S 706 mmHg 89%
    05:00 +8°C° 0 mm 3 m/S 706 mmHg 89%
    06:00 +7°C° 0 mm 3 m/S 706 mmHg 88%
    07:00 +7°C° 0 mm 3 m/S 707 mmHg 88%
    08:00 +8°C° 0 mm 3 m/S 707 mmHg 80%
    09:00 +8°C° 0 mm 4 m/S 707 mmHg 72%
    10:00 +9°C° 0 mm 5 m/S 708 mmHg 64%
    11:00 +10°C° 0 mm 5 m/S 708 mmHg 60%
    12:00 +12°C° 0 mm 5 m/S 707 mmHg 57%
    13:00 +13°C° 0 mm 5 m/S 707 mmHg 53%
    14:00 +12°C° 0 mm 5 m/S 707 mmHg 53%
    15:00 +12°C° 0 mm 5 m/S 707 mmHg 53%
    16:00 +12°C° 0 mm 5 m/S 707 mmHg 53%
    17:00 +10°C° 0 mm 4 m/S 707 mmHg 57%
    18:00 +8°C° 0 mm 4 m/S 707 mmHg 62%
    19:00 +7°C° 0 mm 3 m/S 707 mmHg 66%
    20:00 +5°C° 0 mm 3 m/S 707 mmHg 67%
    21:00 +5°C° 0 mm 3 m/S 707 mmHg 68%
    22:00 +4°C° 0 mm 3 m/S 707 mmHg 68%
    23:00 +4°C° 0 mm 3 m/S 706 mmHg 70%

    30 September, Sonntag

    Zeit Temperatur Niederschläge Wind Luftdruck Luftfeuchtigkeit
    00:00 +3°C° 0 mm 3 m/S 706 mmHg 72%
    01:00 +3°C° 0 mm 3 m/S 705 mmHg 74%
    02:00 +3°C° 0 mm 2 m/S 705 mmHg 78%
    03:00 +3°C° 0 mm 2 m/S 705 mmHg 81%
    04:00 +3°C° 0 mm 2 m/S 704 mmHg 84%
    05:00 +2°C° 0 mm 2 m/S 704 mmHg 85%
    06:00 +2°C° 0 mm 2 m/S 704 mmHg 86%
    07:00 +2°C° 0 mm 2 m/S 704 mmHg 87%
    08:00 +5°C° 0 mm 2 m/S 704 mmHg 77%
    09:00 +7°C° 0 mm 2 m/S 704 mmHg 68%
    10:00 +10°C° 0 mm 2 m/S 704 mmHg 58%
    11:00 +12°C° 0 mm 2 m/S 704 mmHg 54%
    12:00 +14°C° 0 mm 2 m/S 704 mmHg 51%
    13:00 +15°C° 0 mm 2 m/S 704 mmHg 47%
    14:00 +15°C° 0 mm 2 m/S 703 mmHg 49%
    15:00 +15°C° 0 mm 2 m/S 703 mmHg 50%
    16:00 +15°C° 0 mm 1 m/S 703 mmHg 52%
    17:00 +13°C° 0 mm 1 m/S 702 mmHg 61%
    18:00 +11°C° 0 mm 1 m/S 702 mmHg 70%
    19:00 +9°C° 0 mm 1 m/S 702 mmHg 79%
    20:00 +8°C° 0 mm 1 m/S 702 mmHg 81%
    21:00 +7°C° 0 mm 1 m/S 702 mmHg 83%
    22:00 +7°C° 0 mm 1 m/S 701 mmHg 86%
    23:00 +7°C° 0 mm 1 m/S 701 mmHg 86%

    1 Oktober, Montag

    Zeit Temperatur Niederschläge Wind Luftdruck Luftfeuchtigkeit
    00:00 +6°C° 0 mm 1 m/S 701 mmHg 86%
    01:00 +6°C° 0 mm 1 m/S 700 mmHg 87%
    02:00 +6°C° 0 mm 1 m/S 700 mmHg 87%
    03:00 +6°C° 0 mm 1 m/S 700 mmHg 88%
    04:00 +6°C° 0 mm 1 m/S 699 mmHg 88%
    05:00 +6°C° 0 mm 1 m/S 699 mmHg 88%
    06:00 +7°C° 0 mm 1 m/S 699 mmHg 89%
    07:00 +7°C° 0 mm 1 m/S 699 mmHg 89%
    08:00 +9°C° 0 mm 1 m/S 700 mmHg 81%
    09:00 +10°C° 0 mm 2 m/S 700 mmHg 72%
    10:00 +13°C° 0 mm 2 m/S 700 mmHg 64%
    11:00 +13°C° 0 mm 3 m/S 700 mmHg 60%
    12:00 +14°C° 0 mm 3 m/S 699 mmHg 55%
    13:00 +15°C° 0 mm 4 m/S 699 mmHg 51%
    14:00 +14°C° 0 mm 4 m/S 699 mmHg 50%
    15:00 +14°C° 0 mm 4 m/S 698 mmHg 50%
    16:00 +13°C° 0 mm 4 m/S 698 mmHg 50%
    17:00 +12°C° 0 mm 4 m/S 698 mmHg 53%
    18:00 +10°C° 0 mm 3 m/S 698 mmHg 57%
    19:00 +8°C° 0 mm 3 m/S 698 mmHg 60%
    20:00 +7°C° 0.1 mm 2 m/S 698 mmHg 67%
    21:00 +6°C° 0.1 mm 2 m/S 698 mmHg 74%
    22:00 +6°C° 0.1 mm 1 m/S 698 mmHg 81%
    23:00 +6°C° 0.3 mm 1 m/S 699 mmHg 85%
    Mehr zeigen